Location: Brudzew
(52.0976°N, 18.6049°E)
Time: 13:12:25
(UTC+01:00)

ISS - Visible Passes

Search period start: 21 November 2017 00:00
Search period end: 01 December 2017 00:00
Orbit: 402 x 407 km, 51.6° (Epoch: 21 November)

Date Brightness Start Highest point End Pass type
(mag) Time Alt. Az. Time Alt. Az. Time Alt. Az.
28 Nov -1.1 18:17:17 10° SSW 18:17:53 13° SSW 18:17:53 13° SSW visible
29 Nov -1.7 17:25:48 10° S 17:27:45 15° SE 17:27:47 15° SE visible
30 Nov -2.1 18:08:21 10° SW 18:10:17 27° SSW 18:10:17 27° SSW visible
